Ignacio, CO

9:02 PM MST on December 02, 2016 (GMT -0700)
Durango-La Plata County

Weather History for KDRO - July, 2012

Change the Weather History Date:

Monday, July 9, 2012

  Actual Average Record
Temperature  
Mean Temperature 70 °F 68 °F  
Max Temperature 84 °F 86 °F 97 °F (1989)
Min Temperature 56 °F 50 °F 36 °F (1983)
Degree Days  
Heating Degree Days 0 0  
Month to date heating degree days 0 8  
Since 1 June heating degree days 25 123  
Since 1 July heating degree days 0 8  
Cooling Degree Days 5 3  
Month to date cooling degree days 52 25  
Year to date cooling degree days 142 54  
Since 1 June cooling degree days 142 53  
Growing Degree Days 20 (Base 50)    
Moisture  
Dew Point 54 °F    
Average Humidity 65    
Maximum Humidity 93    
Minimum Humidity 36    
Precipitation  
Precipitation T in 0.05 in 1.14 in (1981)
Month to date precipitation 1.03 0.30  
Year to date precipitation 3.74 6.37  
Sea Level Pressure  
Sea Level Pressure 30.14 in    
Wind  
Wind Speed 4 mph (East)    
Max Wind Speed 22 mph    
Max Gust Speed 29 mph    
Visibility 10 miles    
Events Rain , Thunderstorm    
T = Trace of Precipitation, MM = Missing Value Source: NWS Daily Summary

Daily Weather History Graph

Daily Weather History Graph

Search for Another Location

Airport or City:

Trip Planner

Search our weather history database for the weather conditions in past years. The results will help you decide how hot, cold, wet, or windy it might be!

Date:

Astronomy

Jul. 09, 2012 Rise Set
Actual Time 5:59 AM MDT 8:33 PM MDT
Civil Twilight 5:28 AM MDT 9:03 PM MDT
Nautical Twilight 4:51 AM MDT 9:41 PM MDT
Astronomical Twilight 4:09 AM MDT 10:23 PM MDT
Moon No Moon Rise 12:19 PM MDT (7/9)
Length of Visible Light 15h 34m
Length of Day
14h 33m
Waning Gibbous, 63% of the Moon is Illuminated
Jul 9
Waning Gibbous
Jul 10
Last Quarter
Jul 18
New
Jul 26
First Quarter
Aug 1
Full

Hourly Weather History & Observations

Time (MDT) Temp. Dew Point Humidity Pressure Visibility Wind Dir Wind Speed Gust Speed Precip Events Conditions
12:53 AM 60.1 °F 57.0 °F 90% 30.10 in 10.0 mi Calm Calm - N/A   Mostly Cloudy
2:53 AM 59.0 °F 55.9 °F 90% 30.09 in 10.0 mi Calm Calm - N/A   Scattered Clouds
3:53 AM 59.0 °F 57.0 °F 93% 30.09 in 10.0 mi ENE 3.5 mph - N/A   Partly Cloudy
4:53 AM 59.0 °F 54.0 °F 83% 30.12 in 10.0 mi ENE 3.5 mph - N/A   Overcast
5:53 AM 57.0 °F 53.1 °F 87% 30.13 in 10.0 mi North 4.6 mph - N/A   Clear
6:53 AM 57.0 °F 52.0 °F 83% 30.15 in 10.0 mi NNE 4.6 mph - N/A   Clear
7:53 AM 61.0 °F 53.1 °F 75% 30.16 in 10.0 mi Calm Calm - N/A   Mostly Cloudy
8:53 AM 64.0 °F 51.1 °F 63% 30.15 in 10.0 mi Calm Calm - N/A   Mostly Cloudy
9:53 AM 70.0 °F 54.0 °F 57% 30.14 in 10.0 mi East 5.8 mph - N/A   Clear
10:53 AM 72.0 °F 55.0 °F 55% 30.14 in 10.0 mi Variable 3.5 mph - N/A   Clear
11:53 AM 73.0 °F 54.0 °F 51% 30.10 in 10.0 mi SSW 5.8 mph - N/A   Scattered Clouds
12:53 PM 77.0 °F 52.0 °F 42% 30.07 in 10.0 mi East 4.6 mph - N/A   Clear
1:53 PM 80.1 °F 51.1 °F 36% 30.03 in 10.0 mi ENE 4.6 mph - N/A   Clear
2:51 PM 80.6 °F 51.8 °F 37% 30.27 in 10.0 mi South 6.9 mph - N/A Thunderstorm Clear
2:53 PM 82.0 °F 51.1 °F 34% 29.99 in 10.0 mi Variable 5.8 mph - N/A Thunderstorm Clear
3:26 PM 82.4 °F 48.2 °F 30% 30.26 in 10.0 mi Variable 5.8 mph - N/A Thunderstorm Partly Cloudy
3:45 PM 78.8 °F 51.8 °F 39% 30.27 in 10.0 mi ENE 19.6 mph 28.8 mph N/A Thunderstorm Mostly Cloudy
3:53 PM 75.9 °F 51.1 °F 42% 30.03 in 10.0 mi ENE 17.3 mph 25.3 mph N/A Thunderstorm Mostly Cloudy
4:00 PM 75.2 °F 50.0 °F 41% 30.29 in 10.0 mi ENE 19.6 mph - N/A Thunderstorm Thunderstorm
4:53 PM 66.9 °F 54.0 °F 63% 30.07 in 10.0 mi ESE 10.4 mph - N/A   Scattered Clouds
5:50 PM 64.4 °F 55.4 °F 73% 30.31 in 10.0 mi SE 8.1 mph - 0.00 in Rain , Thunderstorm Light Thunderstorms and Rain
6:24 PM 64.4 °F 53.6 °F 68% 30.32 in 10.0 mi Calm Calm - 0.00 in   Overcast
6:53 PM 64.0 °F 55.0 °F 73% 30.12 in 10.0 mi East 8.1 mph - 0.00 in   Mostly Cloudy
7:53 PM 66.0 °F 54.0 °F 65% 30.10 in 10.0 mi ESE 9.2 mph - N/A   Clear
8:53 PM 63.0 °F 55.9 °F 78% 30.11 in 10.0 mi ENE 6.9 mph - N/A   Unknown
9:53 PM 62.1 °F 57.0 °F 84% 30.12 in 10.0 mi Calm Calm - N/A   Clear
10:53 PM 61.0 °F 55.9 °F 83% 30.12 in 10.0 mi Calm Calm - N/A   Clear
11:53 PM 61.0 °F 55.0 °F 81% 30.10 in 10.0 mi Calm Calm - N/A   Clear